This demonstration page uses our WeatherBlox Daily Observations layout. Learn more.

Left ArrowRight Arrow

47.50024, -111.30081

Hourly Observations for April 13, 2019

Temp ( °F °C ) Dew Point ( °F °C ) Humidity (%) Winds ( mph kmh ) Pressure ( in mb ) Visibility ( mi km ) Precip ( " mm )
12:53 am 00:53 Clear 27 -2.8 26 -3.3 96 96 SSW 8 13 29.99 1016 10 16 0.00 0.00
1:53 am 01:53 Clear 29 -1.7 27 -2.8 92 92 S 10 17 29.97 1015 10 16 0.00 0.00
2:53 am 02:53 Clear 30 -1.1 27 -2.8 88 88 SSW 12 19 29.96 1014 10 16 0.00 0.00
3:53 am 03:53 Clear 31 -0.6 27 -2.8 85 85 S 13 20 29.93 1014 10 16 0.00 0.00
4:53 am 04:53 Clear 31 -0.6 28 -2.2 89 89 SSW 10 17 29.94 1014 10 16 0.00 0.00
5:53 am 05:53 Clear 31 -0.6 27 -2.8 85 85 S 10 17 29.92 1013 10 16 0.00 0.00
6:53 am 06:53 Sunny 32 0 28 -2.2 85 85 SSW 13 20 29.91 1013 10 16 0.00 0.00
7:53 am 07:53 Sunny 36 2.2 30 -1.1 79 79 SSW 15 24 29.91 1013 10 16 0.00 0.00
8:53 am 08:53 Sunny 41 5 32 0 70 70 SSW 16 26 29.93 1014 10 16 0.00 0.00
9:53 am 09:53 Sunny 45 7.2 31 -0.6 58 58 SW 22 35 29.90 1013 10 16 0.00 0.00
10:53 am 10:53 Sunny 48 8.9 29 -1.7 48 48 SW 22 35 29.88 1012 10 16 0.00 0.00
11:53 am 11:53 Partly Cloudy 49 9.4 27 -2.8 43 43 WSW 21 33 29.86 1011 10 16 0.00 0.00
12:53 pm 12:53 Mostly Cloudy 52 11.1 27 -2.8 38 38 SW 21 33 29.84 1011 10 16 0.00 0.00
1:53 pm 13:53 Cloudy 50 10 27 -2.8 41 41 SW 20 31 29.82 1010 10 16 0.00 0.00
2:53 pm 14:53 Cloudy 50 10 27 -2.8 41 41 WSW 22 35 29.81 1009 10 16 0.00 0.00
3:53 pm 15:53 Mostly Cloudy 50 10 28 -2.2 43 43 WSW 21 33 29.79 1009 10 16 0.00 0.00
4:53 pm 16:53 Mostly Cloudy 48 8.9 28 -2.2 46 46 WSW 21 33 29.79 1009 10 16 0.00 0.00
5:53 pm 17:53 Cloudy 50 10 27 -2.8 41 41 SW 18 30 29.75 1007 10 16 0.00 0.00
6:53 pm 18:53 Cloudy 50 10 28 -2.2 43 43 SW 14 22 29.72 1007 10 16 0.00 0.00
7:53 pm 19:53 Cloudy 47 8.3 29 -1.7 50 50 SW 10 17 29.69 1005 10 16 0.00 0.00
8:53 pm 20:53 Mostly Cloudy 46 7.8 30 -1.1 54 54 SW 12 19 29.65 1004 10 16 0.00 0.00
9:53 pm 21:53 Cloudy 47 8.3 30 -1.1 52 52 SW 18 30 29.62 1003 10 16 0.00 0.00
10:53 pm 22:53 Mostly Cloudy 45 7.2 31 -0.6 58 58 SW 16 26 29.60 1002 10 16 0.00 0.00
11:53 pm 23:53 Partly Cloudy 45 7.2 31 -0.6 58 58 SW 15 24 29.58 1002 10 16 0.00 0.00

Powered by AerisWeather